[[{"header":{"parameterUnit":"m.s-1","parameterCategory":1,"la1":30.2991,"la2":30.254,"lo1":-89.0895,"lo2":-89.0444,"dy":0.0017,"dx":0.0017,"nx":28,"ny":28,"refTime":"2023-10-08T21:00:00:Z","depth":0,"parameterNumber":2,"parameterNumberName":"U-component_of_WINDS"},"data":[0,0,0,0,0,0,0,0,0,0,0,0,0,0,0,0,0,0,0,0,0,0,0,0,0,0,0,0,0,0,0,0,0,0,0,0,0,0,0,0,0,0,0,0,0,0,0,0,0,0,0,0,0,0,0,0,0,0,1.1092,1.1092,0,1.1116,1.1116,1.1116,1.1113,1.1112,1.1112,1.1111,1.1138,1.1139,1.114,0,0,0,0,0,0,0,0,0,0,0,0,0,1.1047,1.1047,1.1092,1.1092,1.1093,1.1116,1.1116,1.1116,1.1113,1.1112,1.1112,1.1111,1.1137,1.1139,1.114,0,0,0,0,0,0,0,0,0,0,0,0,0,1.1068,1.1048,1.1092,1.1094,1.1094,1.1116,1.1116,1.1116,1.1113,1.1112,1.1112,1.1111,1.1137,1.1138,1.114,1.1162,0,0,1.1145,1.1146,0,0,0,0,0,0,0,0,1.1067,1.107,1.1093,1.1093,1.1094,1.1111,1.111,1.1132,1.1113,1.1106,1.1111,1.1111,1.1129,1.1132,1.1137,1.1164,1.1165,1.1145,1.1146,1.1147,1.1147,0,0,0,0,0,0,0,1.1065,1.1069,1.1102,1.1093,1.1094,1.1094,1.1096,1.1114,1.1121,1.1106,1.1106,1.1109,1.1129,1.1136,1.1138,1.1165,1.1145,1.1147,1.1148,1.1148,1.1212,1.1213,0,0,0,0,0,0,1.1063,1.1067,1.1101,1.1102,1.1078,1.1095,1.1098,1.1106,1.1121,1.1122,1.1109,1.1109,1.1133,1.1136,1.1139,1.1166,1.1147,1.1148,1.1149,1.1212,1.1213,1.1213,0,0,0,0,0,0,1.1062,1.1066,1.11,1.1085,1.1089,1.1097,1.1106,1.1107,1.1113,1.1123,1.1124,1.1114,1.1133,1.1137,1.1157,1.1167,1.1149,1.1151,1.1211,1.1212,1.1213,1.1222,0,0,0,0,0,0,1.1061,1.1066,1.1073,1.1085,1.109,1.1116,1.1106,1.1108,1.1116,1.1115,1.1128,1.1129,1.1133,1.1154,1.1158,1.1169,1.1152,1.121,1.1211,1.1213,1.122,1.1223,1.1225,0,0,0,0,0,1.1059,1.1075,1.1074,1.1078,1.11,1.1117,1.112,1.1123,1.1116,1.1125,1.1131,1.1129,1.1166,1.1156,1.1161,1.1172,1.1209,1.1211,1.1213,1.1219,1.1222,1.1225,0,0,0,0,0,0,1.1065,1.1077,1.1075,1.1095,1.1105,1.1116,1.1127,1.1126,1.1138,1.1137,1.1141,1.1144,1.1164,1.117,1.116,1.1196,1.1187,1.1189,1.119,1.1193,1.1196,1.1193,1.1153,0,0,0,0,0,1.1068,1.1081,1.1091,1.1107,1.1112,1.1119,1.1126,1.1128,1.1139,1.1143,1.1151,1.1162,1.1176,1.1185,1.1199,1.1222,1.1225,1.1232,1.1234,1.1236,1.1238,1.1252,1.1255,1.1219,1.1219,1.1219,0,0,1.1076,1.1084,1.1091,1.1109,1.1116,1.113,1.1122,1.1137,1.1147,1.1145,1.1164,1.1171,1.1184,1.1206,1.1216,1.1212,1.1249,1.1238,1.124,1.1241,1.1254,1.1257,1.126,1.122,1.122,1.122,0,0,1.1096,1.1103,1.1118,1.1126,1.1138,1.1143,1.1146,1.1158,1.1162,1.1182,1.1181,1.1194,1.1218,1.1227,1.1235,1.1261,1.126,1.1266,1.1277,1.129,1.1293,1.1296,1.1305,1.1309,1.1268,1.1268,1.1268,0,1.1104,1.1124,1.1126,1.1141,1.1149,1.1148,1.1164,1.1172,1.1188,1.1194,1.1189,1.122,1.1229,1.1253,1.1259,1.1266,1.1271,1.1264,1.1293,1.1295,1.1298,1.1307,1.131,1.1268,1.1268,1.1268,1.1268,0,1.1133,1.1147,1.1158,1.1173,1.1182,1.1198,1.1204,1.1213,1.1214,1.122,1.124,1.1251,1.1267,1.1273,1.1274,1.1298,1.1295,1.1291,1.1283,1.1302,1.131,1.1314,1.1269,1.1269,1.1269,1.1269,0,0,1.1156,1.1174,1.1178,1.1185,1.1199,1.121,1.1226,1.1241,1.1249,1.1261,1.1275,1.1296,1.1293,1.1302,1.1305,1.1317,1.1337,1.1312,1.1312,1.1316,1.1365,1.1367,1.1371,1.1337,1.1337,1.1338,1.1364,0,1.1178,1.1205,1.1209,1.1233,1.1247,1.1247,1.1261,1.1272,1.1277,1.129,1.1297,1.1312,1.1307,1.1313,1.1324,1.1332,1.1347,1.133,1.135,1.1351,1.1346,1.1375,1.1378,1.1401,1.1367,1.1368,1.1368,0,1.1207,1.1219,1.1244,1.1257,1.1263,1.1275,1.129,1.1303,1.1315,1.1319,1.133,1.1331,1.1349,1.134,1.1365,1.1354,1.1363,1.1368,1.1369,1.1371,1.136,1.1378,1.1409,1.1412,1.1373,1.1373,1.1373,0,1.1221,1.1244,1.1263,1.1269,1.1284,1.1293,1.13,1.1312,1.1322,1.1335,1.1341,1.1357,1.1366,1.1378,1.1385,1.1377,1.141,1.1401,1.1414,1.1414,1.142,1.1419,1.1453,1.1426,1.1426,1.1426,1.1426,0,1.1245,1.1261,1.1269,1.1281,1.1299,1.1304,1.1322,1.1329,1.134,1.1354,1.1355,1.1368,1.1376,1.139,1.1396,1.1416,1.142,1.1424,1.1425,1.1423,1.1423,1.1429,1.1427,1.1427,1.1427,1.1427,1.1427,0,1.1264,1.127,1.129,1.1304,1.1308,1.132,1.1332,1.1344,1.135,1.1368,1.1372,1.1382,1.1399,1.1407,1.1429,1.1432,1.1456,1.1456,1.1451,1.1451,1.1463,1.1462,1.1501,1.1507,1.1477,1.1477,1.1478,0,1.1278,1.129,1.1305,1.1314,1.1321,1.1335,1.1345,1.1351,1.1361,1.1377,1.1387,1.1404,1.1418,1.1446,1.1456,1.1473,1.1473,1.1486,1.1476,1.1474,1.1473,1.1472,1.1474,1.1487,1.1488,1.1488,1.1488,0,1.1303,1.1306,1.1319,1.1334,1.1345,1.1357,1.1369,1.1377,1.1385,1.1396,1.1414,1.1425,1.1447,1.1464,1.1481,1.149,1.1491,1.1492,1.1495,1.1494,1.149,1.1492,1.1456,1.149,1.149,1.149,1.149,1.149,1.132,1.1331,1.1343,1.1358,1.1368,1.1379,1.1391,1.1399,1.1413,1.1431,1.1435,1.1453,1.1467,1.1491,1.15,1.1516,1.1513,1.1518,1.1519,1.1521,1.1521,1.1488,1.1519,1.1519,1.1519,1.1519,1.1519,0,1.1345,1.1353,1.1367,1.1383,1.1396,1.1395,1.1409,1.1419,1.1435,1.1448,1.1462,1.1483,1.15,1.1512,1.1529,1.1539,1.154,1.1544,1.1543,1.1545,1.1523,1.1518,1.1543,1.1543,1.1543,1.1543,1.1543,1.1543,1.1359,1.1378,1.1383,1.1407,1.1415,1.1433,1.1441,1.1452,1.1462,1.1485,1.1499,1.1506,1.1519,1.1538,1.1554,1.1557,1.1564,1.1567,1.157,1.1549,1.1547,1.1544,1.1539,1.1569,1.1569,1.1591,1.1591,1.1592]},{"header":{"parameterUnit":"m.s-1","parameterCategory":1,"la1":30.2991,"la2":30.254,"lo1":-89.0895,"lo2":-89.0444,"dy":0.0017,"dx":0.0017,"nx":28,"ny":28,"refTime":"2023-10-08T21:00:00:Z","depth":0,"parameterNumber":3,"parameterNumberName":"V-component_of_WINDS"},"data":[0,0,0,0,0,0,0,0,0,0,0,0,0,0,0,0,0,0,0,0,0,0,0,0,0,0,0,0,0,0,0,0,0,0,0,0,0,0,0,0,0,0,0,0,0,0,0,0,0,0,0,0,0,0,0,0,0,0,-1.8391,-1.8392,0,-1.8485,-1.8486,-1.8487,-1.8589,-1.859,-1.8592,-1.8593,-1.8687,-1.8688,-1.8689,0,0,0,0,0,0,0,0,0,0,0,0,0,-1.8301,-1.8303,-1.8391,-1.8392,-1.8394,-1.8484,-1.8486,-1.8487,-1.8588,-1.859,-1.8592,-1.8594,-1.8686,-1.8688,-1.8689,0,0,0,0,0,0,0,0,0,0,0,0,0,-1.8362,-1.8303,-1.8391,-1.8455,-1.8462,-1.8484,-1.8486,-1.8487,-1.8588,-1.859,-1.8592,-1.8595,-1.8686,-1.8688,-1.8689,-1.8655,0,0,-1.8694,-1.8695,0,0,0,0,0,0,0,0,-1.8358,-1.8365,-1.8445,-1.8451,-1.8458,-1.8527,-1.8489,-1.8544,-1.8588,-1.854,-1.8593,-1.8596,-1.8632,-1.8638,-1.8651,-1.866,-1.8664,-1.8695,-1.8696,-1.8696,-1.8697,0,0,0,0,0,0,0,-1.8354,-1.8362,-1.8428,-1.8446,-1.8454,-1.848,-1.8491,-1.8499,-1.8572,-1.8544,-1.8552,-1.8562,-1.8636,-1.8649,-1.8654,-1.8665,-1.8695,-1.8696,-1.8697,-1.8698,-1.8655,-1.8652,0,0,0,0,0,0,-1.834,-1.8358,-1.8425,-1.8431,-1.8413,-1.8479,-1.8492,-1.8503,-1.8573,-1.8585,-1.856,-1.8566,-1.8645,-1.8652,-1.8657,-1.8625,-1.8696,-1.8698,-1.8699,-1.8657,-1.8654,-1.8652,0,0,0,0,0,0,-1.8338,-1.8345,-1.8421,-1.8396,-1.8408,-1.8479,-1.849,-1.8504,-1.8517,-1.8584,-1.8598,-1.8559,-1.8647,-1.8655,-1.8656,-1.8629,-1.8699,-1.87,-1.8659,-1.8656,-1.8653,-1.8557,0,0,0,0,0,0,-1.8335,-1.8344,-1.8331,-1.8395,-1.8409,-1.8418,-1.8489,-1.8504,-1.8519,-1.8529,-1.8587,-1.8599,-1.8649,-1.8653,-1.8658,-1.8633,-1.8701,-1.8662,-1.8658,-1.8654,-1.8562,-1.855,-1.854,0,0,0,0,0,-1.8331,-1.8299,-1.833,-1.8338,-1.8395,-1.8416,-1.8424,-1.8483,-1.8517,-1.8505,-1.8549,-1.8597,-1.8631,-1.8652,-1.8658,-1.8633,-1.8664,-1.8659,-1.8654,-1.8567,-1.8553,-1.854,0,0,0,0,0,0,-1.8229,-1.8309,-1.8344,-1.8332,-1.8366,-1.8433,-1.842,-1.8465,-1.849,-1.8497,-1.8569,-1.8581,-1.8574,-1.8604,-1.8626,-1.8606,-1.8655,-1.8651,-1.8587,-1.8573,-1.8562,-1.8555,-1.8703,0,0,0,0,0,-1.8205,-1.8216,-1.8285,-1.8268,-1.8284,-1.8349,-1.836,-1.8403,-1.8441,-1.8456,-1.85,-1.8536,-1.8555,-1.8566,-1.8587,-1.8567,-1.8583,-1.8554,-1.8542,-1.8533,-1.8529,-1.8524,-1.8512,-1.8636,-1.8636,-1.8636,0,0,-1.8155,-1.8201,-1.8203,-1.8248,-1.828,-1.8291,-1.836,-1.8367,-1.8376,-1.8457,-1.8462,-1.8495,-1.854,-1.8531,-1.8529,-1.8556,-1.8498,-1.8527,-1.8519,-1.852,-1.8517,-1.8506,-1.8495,-1.8633,-1.8633,-1.8634,0,0,-1.8071,-1.8105,-1.8096,-1.8127,-1.8176,-1.822,-1.8217,-1.8278,-1.8304,-1.831,-1.8372,-1.8383,-1.8414,-1.8444,-1.8463,-1.8393,-1.8439,-1.8397,-1.8339,-1.8333,-1.8324,-1.8315,-1.8292,-1.8283,-1.8393,-1.8393,-1.8393,0,-1.8003,-1.8021,-1.8085,-1.809,-1.8109,-1.8184,-1.8176,-1.8203,-1.8255,-1.8267,-1.8296,-1.8338,-1.8373,-1.8374,-1.8357,-1.8369,-1.837,-1.8391,-1.832,-1.8312,-1.8305,-1.8284,-1.8275,-1.8388,-1.8388,-1.8389,-1.8389,0,-1.7936,-1.7948,-1.7935,-1.7985,-1.8002,-1.8,-1.8065,-1.8075,-1.8116,-1.8157,-1.8163,-1.8209,-1.8242,-1.8245,-1.8284,-1.8252,-1.8267,-1.8307,-1.8357,-1.8287,-1.8269,-1.8261,-1.838,-1.8382,-1.8384,-1.8385,0,0,-1.7788,-1.7876,-1.787,-1.7895,-1.7955,-1.7966,-1.7967,-1.8001,-1.8009,-1.8043,-1.8047,-1.8073,-1.8111,-1.8133,-1.8177,-1.8171,-1.8116,-1.8212,-1.8215,-1.8194,-1.8085,-1.8056,-1.8045,-1.8147,-1.8145,-1.8144,-1.8082,0,-1.7715,-1.7724,-1.7783,-1.7775,-1.7788,-1.7861,-1.7863,-1.79,-1.794,-1.7956,-1.8,-1.8017,-1.8065,-1.8079,-1.8077,-1.8123,-1.8095,-1.8128,-1.8152,-1.8152,-1.814,-1.8035,-1.8003,-1.7942,-1.8075,-1.8074,-1.8073,0,-1.763,-1.7661,-1.7654,-1.7717,-1.7725,-1.7726,-1.7763,-1.7777,-1.7822,-1.7851,-1.7877,-1.7927,-1.7935,-1.7982,-1.7994,-1.8015,-1.8029,-1.8053,-1.8052,-1.8057,-1.8109,-1.8038,-1.7924,-1.7915,-1.8062,-1.8063,-1.8063,0,-1.7525,-1.7565,-1.7567,-1.7586,-1.7658,-1.7658,-1.7688,-1.7735,-1.7752,-1.7784,-1.7796,-1.7828,-1.7846,-1.787,-1.7928,-1.7957,-1.7934,-1.7986,-1.796,-1.7958,-1.7952,-1.7951,-1.7839,-1.7958,-1.7959,-1.7959,-1.7959,0,-1.7438,-1.7431,-1.7521,-1.7522,-1.7518,-1.7586,-1.758,-1.7617,-1.7659,-1.767,-1.7735,-1.7743,-1.7819,-1.7836,-1.7882,-1.7887,-1.7893,-1.7918,-1.793,-1.7913,-1.791,-1.7923,-1.7929,-1.7956,-1.7957,-1.7957,-1.7958,0,-1.7319,-1.7379,-1.7386,-1.7456,-1.7473,-1.7467,-1.7526,-1.7531,-1.7575,-1.7587,-1.7594,-1.7663,-1.7687,-1.7748,-1.7787,-1.7819,-1.7811,-1.7833,-1.7796,-1.7804,-1.7775,-1.7778,-1.7668,-1.7658,-1.7782,-1.7781,-1.778,0,-1.726,-1.7257,-1.7327,-1.7339,-1.7367,-1.7385,-1.7404,-1.7472,-1.7489,-1.7541,-1.754,-1.7569,-1.7597,-1.7632,-1.7686,-1.7717,-1.7741,-1.7701,-1.7746,-1.773,-1.7743,-1.7743,-1.7744,-1.7691,-1.7689,-1.7688,-1.7686,0,-1.7149,-1.718,-1.7204,-1.7239,-1.726,-1.7291,-1.7325,-1.7332,-1.7408,-1.7424,-1.745,-1.7472,-1.7514,-1.7543,-1.7583,-1.7615,-1.7664,-1.7672,-1.7668,-1.765,-1.763,-1.7642,-1.777,-1.7674,-1.7675,-1.7676,-1.7677,-1.7677,-1.706,-1.7062,-1.7112,-1.7138,-1.7171,-1.7203,-1.7211,-1.7257,-1.728,-1.7321,-1.7359,-1.7382,-1.743,-1.7489,-1.7518,-1.7537,-1.7562,-1.7555,-1.7554,-1.7552,-1.7545,-1.7626,-1.7544,-1.7545,-1.7545,-1.7546,-1.7546,0,-1.6954,-1.6991,-1.7014,-1.7061,-1.7082,-1.7127,-1.7168,-1.7183,-1.7202,-1.7242,-1.7269,-1.73,-1.733,-1.7386,-1.7421,-1.7426,-1.7449,-1.7433,-1.7434,-1.7441,-1.7519,-1.752,-1.7413,-1.7413,-1.7413,-1.7413,-1.7413,-1.7413,-1.6901,-1.6908,-1.6944,-1.6969,-1.7006,-1.7029,-1.7049,-1.7079,-1.7112,-1.7145,-1.717,-1.7207,-1.7255,-1.7294,-1.7324,-1.734,-1.735,-1.7326,-1.735,-1.7422,-1.7435,-1.7447,-1.7448,-1.7328,-1.7328,-1.727,-1.7269,-1.7269]}]]